Weather History for KDZB - August, 2013

Change the Weather History Date:

Thursday, August 22, 2013

  Actual Average (KBMQ) Record (KBMQ)
Temperature  
Mean Temperature 83 °F -  
Max Temperature 95 °F 91 °F 102 °F (2011)
Min Temperature 71 °F 71 °F 69 °F (2012)
Cooling Degree Days 18    
Growing Degree Days 33 (Base 50)    
Moisture  
Dew Point 67 °F    
Average Humidity 62    
Maximum Humidity 100    
Minimum Humidity 30    
Precipitation  
Precipitation 0.00 in - - ()
Sea Level Pressure  
Sea Level Pressure 30.04 in    
Wind  
Wind Speed 2 mph (SSE)    
Max Wind Speed 9 mph    
Max Gust Speed -    
Visibility 10 miles    
Events      
Averages and records for this station are not official NWS values.
T = Trace of Precipitation, MM = Missing Value Source: NWS Daily Summary

Daily Weather History Graph

Daily Weather History Graph

Search for Another Location

Airport or City:

Trip Planner

Search our weather history database for the weather conditions in past years. The results will help you decide how hot, cold, wet, or windy it might be!

Date:

Astronomy

Aug. 22, 2013 Rise Set
Actual Time 6:04 AM MDT 7:07 PM MDT
Civil Twilight 5:39 AM MDT 7:32 PM MDT
Nautical Twilight 5:09 AM MDT 8:01 PM MDT
Astronomical Twilight 4:39 AM MDT 8:32 PM MDT
Moon 8:06 PM MDT (8/22) 7:42 AM MDT (8/22)
Length of Visible Light 13h 52m
Length of Day
13h 03m
Waning Gibbous, 96% of the Moon is Illuminated
Aug 22
Waning Gibbous
Aug 28
Last Quarter
Sep 5
New
Sep 12
First Quarter
Sep 19
Full

Hourly Weather History & Observations

Time (MDT) Temp. Heat Index Dew Point Humidity Pressure Visibility Wind Dir Wind Speed Gust Speed Precip Events Conditions
12:15 AM 76.3 °F - 67.5 °F 74% 30.06 in 10.0 mi South 3.5 mph - N/A   Clear
12:35 AM 75.2 °F - 68.0 °F 78% 30.06 in 10.0 mi Calm Calm - N/A   Clear
12:55 AM 74.5 °F - 68.0 °F 80% 30.06 in 10.0 mi Calm Calm - N/A   Clear
1:15 AM 74.1 °F - 68.2 °F 82% 30.06 in 10.0 mi Calm Calm - N/A   Clear
1:35 AM 73.4 °F - 68.9 °F 86% 30.05 in 10.0 mi Calm Calm - N/A   Clear
1:55 AM 73.2 °F - 68.5 °F 85% 30.04 in 10.0 mi Calm Calm - N/A   Clear
2:15 AM 73.4 °F - 68.9 °F 86% 30.04 in 10.0 mi South 3.5 mph - N/A   Clear
2:35 AM 74.3 °F - 68.9 °F 83% 30.05 in 10.0 mi South 3.5 mph - N/A   Clear
2:55 AM 74.3 °F - 69.1 °F 84% 30.05 in 10.0 mi Calm Calm - N/A   Clear
3:15 AM 73.6 °F - 68.9 °F 85% 30.04 in 10.0 mi Calm Calm - N/A   Clear
3:35 AM 72.3 °F - 70.7 °F 95% 30.04 in 10.0 mi Calm Calm - N/A   Clear
3:55 AM 71.8 °F - 71.8 °F 100% 30.05 in 10.0 mi Calm Calm - N/A   Clear
4:15 AM 71.6 °F - 71.6 °F 100% 30.06 in 10.0 mi Calm Calm - N/A   Clear
4:35 AM 71.2 °F - 71.2 °F 100% 30.06 in 10.0 mi Calm Calm - N/A   Clear
4:55 AM 71.2 °F - 71.2 °F 100% 30.06 in 10.0 mi Calm Calm - N/A   Clear
5:15 AM 71.2 °F - 71.2 °F 100% 30.07 in 10.0 mi Calm Calm - N/A   Clear
5:35 AM 71.4 °F - 71.4 °F 100% 30.08 in 10.0 mi Calm Calm - N/A   Clear
5:55 AM 71.2 °F - 71.2 °F 100% 30.09 in 10.0 mi Calm Calm - N/A   Clear
6:15 AM 71.4 °F - 71.4 °F 100% 30.09 in 10.0 mi Calm Calm - N/A   Clear
6:35 AM 71.6 °F - 71.6 °F 100% 30.09 in 10.0 mi Calm Calm - N/A   Clear
6:55 AM 71.8 °F - 71.8 °F 100% 30.10 in 10.0 mi SSE 3.5 mph - N/A   Clear
7:15 AM 73.2 °F - 73.2 °F 100% 30.10 in 10.0 mi Calm Calm - N/A   Clear
7:35 AM 75.6 °F - 71.8 °F 88% 30.11 in 10.0 mi Calm Calm - N/A   Clear
7:55 AM 78.3 °F - 71.4 °F 79% 30.11 in 10.0 mi Calm Calm - N/A   Clear
8:15 AM 79.7 °F - 70.7 °F 74% 30.11 in 10.0 mi Calm Calm - N/A   Clear
8:35 AM 81.0 °F 84.7 °F 70.7 °F 71% 30.11 in 7.0 mi Calm Calm - N/A   Scattered Clouds
8:55 AM 81.1 °F 85.0 °F 70.9 °F 71% 30.12 in 10.0 mi Calm Calm - N/A   Scattered Clouds
9:15 AM 82.6 °F 85.9 °F 68.7 °F 63% 30.12 in 10.0 mi SE 3.5 mph - N/A   Scattered Clouds
9:35 AM 84.2 °F 87.6 °F 68.4 °F 59% 30.12 in 10.0 mi SE 3.5 mph - N/A   Scattered Clouds
9:55 AM 84.9 °F 88.2 °F 68.2 °F 57% 30.12 in 10.0 mi ESE 4.6 mph - N/A   Mostly Cloudy
10:15 AM 86.2 °F 89.7 °F 68.2 °F 55% 30.11 in 10.0 mi Calm Calm - N/A   Scattered Clouds
10:35 AM 87.1 °F 89.5 °F 66.6 °F 50% 30.11 in 10.0 mi SE 3.5 mph - N/A   Clear
10:55 AM 87.3 °F 88.9 °F 64.9 °F 47% 30.10 in - SSW 3.5 mph - N/A   Clear
11:15 AM 88.0 °F 90.3 °F 65.8 °F 48% 30.09 in 10.0 mi South 3.5 mph - N/A   Clear
11:35 AM 88.7 °F 90.4 °F 65.1 °F 45% 30.08 in 10.0 mi SE 4.6 mph - N/A   Clear
11:55 AM 89.6 °F 90.8 °F 64.0 °F 42% 30.07 in 10.0 mi South 6.9 mph - N/A   Clear
12:15 PM 90.9 °F 92.0 °F 63.3 °F 40% 30.06 in 10.0 mi ENE 3.5 mph - N/A   Scattered Clouds
12:35 PM 92.1 °F 93.2 °F 63.5 °F 38% 30.05 in 10.0 mi SSE 9.2 mph - N/A   Scattered Clouds
12:55 PM 92.5 °F 93.7 °F 63.1 °F 38% 30.04 in 10.0 mi SE 3.5 mph - N/A   Scattered Clouds
1:15 PM 92.5 °F 94.1 °F 63.9 °F 39% 30.03 in 10.0 mi South 4.6 mph - N/A   Scattered Clouds
1:35 PM 92.1 °F 93.6 °F 63.7 °F 39% 30.03 in 10.0 mi SE 5.8 mph - N/A   Scattered Clouds
1:55 PM 93.6 °F 95.0 °F 63.3 °F 37% 30.01 in 10.0 mi SE 4.6 mph - N/A   Scattered Clouds
2:15 PM 92.8 °F 93.9 °F 63.0 °F 37% 30.01 in - South 4.6 mph - N/A   Scattered Clouds
2:35 PM 92.7 °F 93.2 °F 62.2 °F 36% 30.00 in 10.0 mi ENE 5.8 mph - N/A   Scattered Clouds
2:55 PM 93.0 °F 93.4 °F 61.9 °F 35% 29.99 in 10.0 mi SE 6.9 mph - N/A   Clear
3:15 PM 94.5 °F 96.1 °F 63.3 °F 36% 29.99 in 10.0 mi East 5.8 mph - N/A   Scattered Clouds
3:35 PM 95.7 °F 97.2 °F 63.3 °F 34% 29.98 in 10.0 mi East 6.9 mph - N/A   Mostly Cloudy
3:55 PM 93.2 °F 94.1 °F 62.6 °F 36% 29.98 in 10.0 mi SE 5.8 mph - N/A   Scattered Clouds
4:15 PM 93.6 °F 94.2 °F 61.7 °F 35% 29.97 in 10.0 mi Calm Calm - N/A   Clear
4:35 PM 94.8 °F 94.2 °F 58.6 °F 30% 29.96 in 10.0 mi ESE 5.8 mph - N/A   Clear
4:55 PM 93.7 °F 93.7 °F 60.4 °F 33% 29.96 in 10.0 mi SSE 6.9 mph - N/A   Clear
5:15 PM 94.5 °F 94.8 °F 61.0 °F 33% 29.95 in - ESE 5.8 mph - N/A   Clear
5:35 PM 93.6 °F 94.2 °F 61.9 °F 35% 29.95 in 10.0 mi SSE 4.6 mph - N/A   Clear
5:55 PM 93.0 °F 93.8 °F 62.4 °F 36% 29.95 in 10.0 mi South 4.6 mph - N/A   Clear
6:15 PM 91.6 °F 92.3 °F 62.6 °F 38% 29.95 in 10.0 mi SSE 4.6 mph - N/A   Clear
6:35 PM 89.2 °F 89.9 °F 62.6 °F 41% 29.95 in 10.0 mi South 4.6 mph - N/A   Clear
6:55 PM 87.8 °F 88.8 °F 63.7 °F 44% 29.96 in 10.0 mi Calm Calm - N/A   Clear
7:15 PM 86.2 °F 87.6 °F 64.6 °F 48% 29.97 in 10.0 mi Calm Calm - N/A   Clear
7:35 PM 84.6 °F 86.6 °F 65.5 °F 53% 29.97 in 10.0 mi SSE 3.5 mph - N/A   Clear
7:55 PM 83.5 °F 85.3 °F 65.1 °F 54% 29.98 in 10.0 mi Calm Calm - N/A   Clear
8:15 PM 82.6 °F 84.5 °F 65.7 °F 56% 29.98 in 10.0 mi Calm Calm - N/A   Clear
8:35 PM 81.7 °F 84.0 °F 66.4 °F 60% 29.99 in 10.0 mi Calm Calm - N/A   Clear
8:55 PM 81.7 °F 83.6 °F 65.8 °F 58% 30.00 in 10.0 mi SSE 8.1 mph - N/A   Clear
9:15 PM 83.1 °F 84.8 °F 64.8 °F 54% 30.01 in 10.0 mi South 5.8 mph - N/A   Clear
9:35 PM 82.6 °F 84.5 °F 65.3 °F 56% 30.01 in 10.0 mi SSE 4.6 mph - N/A   Clear
9:55 PM 82.0 °F 83.8 °F 65.1 °F 56% 30.01 in 10.0 mi SSE 6.9 mph - N/A   Clear
10:15 PM 82.0 °F 83.8 °F 64.8 °F 56% 30.02 in 10.0 mi SSE 5.8 mph - N/A   Clear
10:35 PM 81.3 °F 83.2 °F 65.3 °F 58% 30.01 in 10.0 mi South 5.8 mph - N/A   Clear
10:55 PM 80.6 °F 82.5 °F 65.5 °F 60% 30.01 in 10.0 mi SSE 5.8 mph - N/A   Clear
11:15 PM 80.2 °F 82.3 °F 66.2 °F 62% 30.01 in 10.0 mi South 5.8 mph - N/A   Clear
11:35 PM 80.2 °F 82.5 °F 66.7 °F 63% 30.01 in 10.0 mi South 5.8 mph - N/A   Clear
11:55 PM 79.9 °F - 67.3 °F 65% 30.01 in 10.0 mi SE 3.5 mph - N/A   Clear